AG5GL Weather Reports


time (UTC)temp
C
wind
direction
speed
KPH
gust
KPH
rain 1hr
cm
rain 24hr
cm
rain mn
cm
humidity
%
barometer
mb
20260507205946 -17 42 1.6 8.0 0.00 0.00 0.00 1018.2
20260507204945 -17 99 1.6 3.2 0.00 0.00 0.00 1018.3
20260507203945 -17 132 9.7 11.3 0.00 0.00 0.00 1018.1
20260507202945 -17 94 6.4 9.7 0.00 0.00 0.00 1018.3
20260507201943 -17 77 1.6 8.0 0.00 0.00 0.00 1018.1
20260507200941 -17 107 0.0 3.2 0.00 0.00 0.00 1018.3
20260507195938 -17 64 1.6 8.0 0.00 0.00 0.00 1018.5
20260507194933 -17 73 4.8 9.7 0.00 0.00 0.00 1018.6
20260507193931 -17 50 0.0 1.6 0.00 0.00 0.00 1018.8
20260507192931 -17 56 4.8 8.0 0.00 0.00 0.00 1018.5
20260507191930 -17 66 4.8 9.7 0.00 0.00 0.00 1018.4
20260507190928 -17 67 4.8 9.7 0.00 0.00 0.00 1018.7
20260507185925 -17 101 8.0 11.3 0.00 0.00 0.00 1018.6
20260507184924 -17 63 3.2 4.8 0.00 0.00 0.00 1018.8
20260507183919 -17 101 8.0 12.9 0.00 0.00 0.00 1019.0
20260507182919 -17 61 1.6 3.2 0.00 0.00 0.00 1018.6
20260507181917 -17 71 1.6 3.2 0.00 0.00 0.00 1018.9
20260507180916 -17 84 4.8 9.7 0.00 0.00 0.00 1019.2
20260507175914 -17 75 4.8 8.0 0.00 0.00 0.00 1019.2
20260507174914 -17 95 1.6 3.2 0.00 0.00 0.00 1019.4
20260507173915 -17 58 1.6 4.8 0.00 0.00 0.00 1019.1
20260507172914 -17 57 1.6 3.2 0.00 0.00 0.00 1019.4
20260507171912 -17 80 1.6 4.8 0.00 0.00 0.00 1019.8
20260507170912 -17 65 0.0 1.6 0.00 0.00 0.00 1019.6
20260507165910 -17 84 3.2 4.8 0.00 0.00 0.00 1019.8
20260507164908 -17 84 3.2 4.8 0.00 0.00 0.00 1020.0
20260507163909 -17 59 1.6 3.2 0.00 0.00 0.00 1020.1
20260507162908 -17 79 3.2 9.7 0.00 0.00 0.00 1020.2
20260507161907 -17 93 4.8 9.7 0.00 0.00 0.00 1020.6
20260507160906 -17 73 0.0 0.0 0.00 0.00 0.00 1020.5
20260507155904 -17 77 0.0 0.0 0.00 0.00 0.00 1020.5
20260507154903 -17 57 1.6 3.2 0.00 0.00 0.00 1020.6
20260507153903 -17 94 0.0 1.6 0.00 0.00 0.00 1020.6
20260507152901 -17 77 3.2 9.7 0.00 0.00 0.00 1020.6
20260507151900 -17 77 0.0 1.6 0.00 0.00 0.00 1020.9
20260507150859 -17 74 4.8 11.3 0.00 0.00 0.00 1020.6
20260507145858 -17 79 0.0 1.6 0.00 0.00 0.00 1020.7
20260507144857 -17 85 0.0 0.0 0.00 0.00 0.00 1020.8
20260507143857 -17 79 3.2 9.7 0.00 0.00 0.00 1020.7
20260507142856 -17 90 1.6 1.6 0.00 0.00 0.00 1020.7
20260507141855 -17 109 1.6 1.6 0.00 0.00 0.00 1020.9
20260507140854 -17 103 0.0 1.6 0.00 0.00 0.00 1021.0
20260507135849 -17 102 0.0 0.0 0.00 0.00 0.00 1020.9
20260507134849 -17 70 1.6 1.6 0.00 0.00 0.00 1020.9
20260507133847 -17 66 1.6 9.7 0.00 0.00 0.00 1020.9
20260507132841 -17 85 8.0 12.9 0.00 0.00 0.00 1020.7
20260507131840 -17 80 1.6 4.8 0.00 0.00 0.00 1020.9
20260507130840 -17 80 0.0 1.6 0.00 0.00 0.00 1020.8
20260507125836 -17 73 0.0 0.0 0.00 0.00 0.00 1021.0
20260507124836 -17 70 1.6 4.8 0.00 0.00 0.00 1021.0
20260507123837 -17 75 0.0 3.2 0.00 0.00 0.00 1020.6
20260507122836 -17 77 0.0 0.0 0.00 0.00 0.00 1020.6
20260507121834 -17 84 0.0 0.0 0.00 0.00 0.00 1020.3
20260507120832 -17 94 0.0 0.0 0.00 0.00 0.00 1020.0
20260507115830 -17 89 0.0 0.0 0.00 0.00 0.00 1020.1
20260507114828 -17 86 0.0 0.0 0.00 0.00 0.00 1020.0
20260507113823 -17 83 0.0 0.0 0.00 0.00 0.00 1019.9
20260507112817 -17 67 0.0 0.0 0.00 0.00 0.00 1019.9
20260507111818 -17 118 0.0 0.0 0.00 0.00 0.00 1019.6
20260507110816 -17 59 0.0 0.0 0.00 0.00 0.00 1019.7
20260507105815 -17 109 0.0 0.0 0.00 0.00 0.00 1019.8
20260507104815 -17 64 0.0 0.0 0.00 0.00 0.00 1019.5
20260507103813 -17 57 0.0 0.0 0.00 0.00 0.00 1019.6
20260507102811 -17 71 0.0 0.0 0.00 0.00 0.00 1019.4
20260507101810 -17 75 0.0 0.0 0.00 0.00 0.00 1019.5
20260507100808 -17 40 0.0 0.0 0.00 0.00 0.00 1019.4
20260507095804 -17 55 0.0 0.0 0.00 0.00 0.00 1019.4
20260507094802 -17 300 0.0 0.0 0.00 0.00 0.00 1019.1
20260507093802 -17 32 0.0 0.0 0.00 0.00 0.00 1019.1
20260507092758 -17 25 0.0 0.0 0.00 0.00 0.00 1019.1
20260507091756 -17 74 0.0 0.0 0.00 0.00 0.00 1019.1
20260507090753 -17 36 0.0 0.0 0.00 0.00 0.00 1019.0
20260507085753 -17 81 0.0 0.0 0.00 0.00 0.00 1019.2
20260507084753 -17 103 0.0 0.0 0.00 0.00 0.00 1019.2
20260507083753 -17 62 0.0 0.0 0.00 0.00 0.00 1019.3
20260507082751 -17 47 0.0 0.0 0.00 0.00 0.00 1019.2
20260507081750 -17 55 0.0 0.0 0.00 0.00 0.00 1019.2
20260507080748 -17 74 0.0 0.0 0.00 0.00 0.00 1019.0
20260507075746 -17 51 0.0 0.0 0.00 0.00 0.00 1019.0
20260507074744 -17 63 0.0 0.0 0.00 0.00 0.00 1019.2
20260507073739 -17 54 0.0 0.0 0.00 0.00 0.00 1019.4
20260507072739 -17 92 0.0 0.0 0.00 0.00 0.00 1019.1
20260507071740 -17 334 0.0 0.0 0.00 0.00 0.00 1019.4
20260507070739 -17 312 0.0 0.0 0.00 0.00 0.00 1019.4
20260507065738 -17 86 0.0 0.0 0.00 0.00 0.00 1019.4
20260507064738 -17 45 0.0 0.0 0.00 0.00 0.00 1019.7
20260507063734 -17 62 0.0 0.0 0.00 0.00 0.00 1019.7
20260507062734 -17 51 0.0 0.0 0.00 0.00 0.00 1019.8
20260507061729 -17 64 0.0 0.0 0.00 0.00 0.00 1020.0
20260507060724 -17 121 0.0 0.0 0.00 0.00 0.00 1020.3
20260507055723 -17 48 0.0 0.0 0.00 0.00 0.00 1020.3
20260507054720 -17 29 0.0 0.0 0.00 0.00 0.00 1020.2
20260507053715 -17 41 0.0 0.0 0.00 0.00 0.00 1020.4
20260507052712 -17 62 0.0 0.0 0.00 0.00 0.00 1020.4
20260507051711 -17 44 0.0 0.0 0.00 0.00 0.00 1020.6
20260507050710 -17 56 0.0 0.0 0.00 0.00 0.00 1020.8
20260507045710 -17 92 0.0 0.0 0.00 0.00 0.00 1021.0
20260507044709 -17 46 0.0 0.0 0.00 0.00 0.00 1020.9
20260507043708 -17 53 0.0 0.0 0.00 0.00 0.00 1021.1
20260507042707 -17 71 0.0 0.0 0.00 0.00 0.00 1021.1
20260507041706 -17 97 0.0 0.0 0.00 0.00 0.00 1021.2
20260507040705 -17 60 0.0 0.0 0.00 0.00 0.00 1021.4
20260507035703 -17 86 0.0 0.0 0.00 0.00 0.00 1021.3
20260507034702 -17 84 0.0 0.0 0.00 0.00 0.00 1021.6
20260507033658 -17 163 0.0 0.0 0.00 0.00 0.00 1021.6
20260507032658 -17 43 0.0 0.0 0.00 0.00 0.00 1021.5
20260507031657 -17 61 0.0 0.0 0.00 0.00 0.00 1021.2
20260507030656 -17 94 0.0 0.0 0.00 0.00 0.00 1021.5
20260507025651 -17 82 0.0 0.0 0.00 0.00 0.00 1021.3
20260507024646 -17 97 0.0 0.0 0.00 0.00 0.00 1021.4
20260507023644 -17 43 0.0 0.0 0.00 0.00 0.00 1021.3
20260507022638 -17 99 0.0 0.0 0.00 0.00 0.00 1021.2
20260507021636 -17 179 0.0 0.0 0.00 0.00 0.00 1021.1
20260507020636 -17 122 0.0 0.0 0.00 0.00 0.00 1021.1
20260507015631 -17 13 0.0 0.0 0.00 0.00 0.00 1021.0
20260507014630 -17 30 0.0 0.0 0.00 0.00 0.00 1021.0
20260507013629 -17 29 0.0 0.0 0.00 0.00 0.00 1020.7
20260507012629 -17 33 0.0 0.0 0.00 0.00 0.00 1020.7
20260507011629 -17 30 0.0 0.0 0.00 0.00 0.00 1020.6
20260507010626 -17 20 0.0 0.0 0.00 0.00 0.00 1020.4
20260507005625 -17 24 0.0 0.0 0.00 0.00 0.00 1020.6
20260507004624 -17 340 0.0 0.0 0.00 0.00 0.00 1020.5
20260507003624 -17 18 0.0 0.0 0.00 0.00 0.00 1020.5
20260507002621 -17 13 0.0 0.0 0.00 0.00 0.00 1020.3
20260507001619 -17 9 0.0 0.0 0.00 0.00 0.00 1020.1
20260507000618 -17 41 0.0 0.0 0.00 0.00 0.00 1020.1
20260506235617 -17 23 0.0 0.0 0.00 0.00 0.00 1020.2
20260506234614 -17 341 0.0 0.0 0.00 0.00 0.00 1020.3
20260506233613 -17 334 0.0 0.0 0.00 0.00 0.00 1019.9
20260506232612 -17 354 0.0 0.0 0.00 0.00 0.00 1019.9
20260506231611 -17 0 0.0 0.0 0.00 0.00 0.00 1019.7
20260506230605 -17 342 0.0 0.0 0.00 0.00 0.00 1019.8
20260506225605 -17 21 0.0 0.0 0.00 0.00 0.00 1019.9
20260506224604 -17 342 0.0 0.0 0.00 0.00 0.00 1019.4
20260506223602 -17 23 0.0 0.0 0.00 0.00 0.00 1019.5
20260506222602 -17 330 0.0 1.6 0.00 0.00 0.00 1019.3
20260506221602 -17 16 0.0 0.0 0.00 0.00 0.00 1019.5
20260506220601 -17 347 0.0 0.0 0.00 0.00 0.00 1019.2
20260506215559 -17 335 0.0 0.0 0.00 0.00 0.00 1019.1
20260506214558 -17 36 0.0 0.0 0.00 0.00 0.00 1018.9
20260506213553 -17 39 0.0 0.0 0.00 0.00 0.00 1018.8
20260506212553 -17 27 0.0 0.0 0.00 0.00 0.00 1019.1
20260506211550 -17 40 0.0 0.0 0.00 0.00 0.00 1018.7
20260506210550 -17 6 0.0 0.0 0.00 0.00 0.00 1019.0